EIN1YG EGLL-EIDW

Flight info

Callsign EIN1YG
Flight time 0h 57m
Altitude 32000
Route CPT L9 DIDZA N14 BIBPE DCT OKTAD DCT MEDOG DCT KRAGY DCT PEMOB DCT LEMGU M17 VATRY VATRY4L
Aircraft A20N/M-SDE2E3FGHIRWXY/LB1

Departure

Time 2026-04-30 20:40
Airport London Heathrow Airport (EGLL)

Arrival

Time 2026-04-30 21:37
Airport Dublin Airport (EIDW)
Time Latitude Longitude Altitude Speed Heading
2026-04-30 20:17 51.46827 -0.44918 97 ft 0 kts 353°
2026-04-30 20:27 51.46806 -0.44914 96 ft 1 kts 353°
2026-04-30 20:27 51.46779 -0.44898 95 ft 2 kts 324°
2026-04-30 20:28 51.46762 -0.44871 94 ft 1 kts 302°
2026-04-30 20:28 51.46752 -0.44832 94 ft 1 kts 278°
2026-04-30 20:29 51.46751 -0.44781 94 ft 2 kts 270°
2026-04-30 20:30 51.46751 -0.44755 94 ft 0 kts 269°
2026-04-30 20:32 51.46751 -0.44780 94 ft 6 kts 270°
2026-04-30 20:32 51.46748 -0.45017 95 ft 10 kts 264°
2026-04-30 20:33 51.46748 -0.45140 96 ft 11 kts 270°
2026-04-30 20:33 51.46749 -0.45428 90 ft 16 kts 267°
2026-04-30 20:33 51.46750 -0.45620 88 ft 17 kts 270°
2026-04-30 20:34 51.46747 -0.46034 84 ft 19 kts 269°
2026-04-30 20:34 51.46745 -0.46482 79 ft 21 kts 269°
2026-04-30 20:35 51.46747 -0.46726 78 ft 21 kts 269°
2026-04-30 20:35 51.46747 -0.46942 78 ft 21 kts 269°
2026-04-30 20:35 51.46746 -0.47381 79 ft 19 kts 268°
2026-04-30 20:36 51.46744 -0.47581 81 ft 18 kts 269°
2026-04-30 20:36 51.46744 -0.47791 81 ft 18 kts 270°
2026-04-30 20:36 51.46742 -0.48091 81 ft 0 kts 269°
2026-04-30 20:37 51.46742 -0.48092 81 ft 0 kts 269°
2026-04-30 20:37 51.46741 -0.48100 81 ft 6 kts 269°
2026-04-30 20:37 51.46742 -0.48299 80 ft 20 kts 269°
2026-04-30 20:37 51.46710 -0.48460 78 ft 14 kts 213°
2026-04-30 20:38 51.46629 -0.48468 77 ft 1 kts 178°
2026-04-30 20:38 51.46628 -0.48468 77 ft 0 kts 178°
2026-04-30 20:38 51.46563 -0.48466 77 ft 28 kts 177°
2026-04-30 20:39 51.46477 -0.48384 78 ft 0 kts 89°
2026-04-30 20:39 51.46477 -0.48375 77 ft 0 kts 89°
2026-04-30 20:40 51.46483 -0.47245 78 ft 122 kts 89°
2026-04-30 20:40 51.46494 -0.45621 416 ft 152 kts 88°
2026-04-30 20:40 51.46509 -0.43886 1164 ft 158 kts 87°
2026-04-30 20:41 51.46079 -0.40588 2473 ft 177 kts 132°
2026-04-30 20:41 51.44992 -0.39719 2953 ft 201 kts 173°
2026-04-30 20:41 51.43580 -0.40381 3451 ft 232 kts 216°
2026-04-30 20:41 51.42454 -0.42371 4044 ft 251 kts 237°
2026-04-30 20:42 51.41496 -0.44809 4708 ft 269 kts 241°
2026-04-30 20:42 51.40750 -0.47380 5383 ft 271 kts 260°
2026-04-30 20:42 51.41054 -0.53151 6449 ft 271 kts 286°
2026-04-30 20:43 51.41468 -0.55947 7608 ft 267 kts 285°
2026-04-30 20:43 51.41842 -0.58651 8717 ft 263 kts 283°
2026-04-30 20:43 51.42231 -0.61538 9637 ft 267 kts 276°
2026-04-30 20:44 51.42885 -0.67469 11182 ft 283 kts 276°
2026-04-30 20:44 51.43206 -0.70500 11644 ft 300 kts 277°
2026-04-30 20:44 51.43941 -0.77070 13326 ft 307 kts 278°
2026-04-30 20:45 51.44708 -0.83244 14719 ft 310 kts 278°
2026-04-30 20:45 51.45109 -0.86500 15074 ft 309 kts 278°
2026-04-30 20:45 51.45514 -0.89877 15283 ft 311 kts 277°
2026-04-30 20:46 51.46666 -0.99943 17685 ft 313 kts 276°
2026-04-30 20:46 51.47043 -1.03245 18500 ft 312 kts 276°
2026-04-30 20:47 51.47773 -1.09634 20729 ft 291 kts 275°
2026-04-30 20:47 51.48108 -1.12574 21794 ft 280 kts 275°
2026-04-30 20:48 51.48754 -1.18276 23897 ft 257 kts 275°
2026-04-30 20:48 51.49282 -1.20913 24871 ft 255 kts 286°
2026-04-30 20:48 51.50126 -1.23075 25605 ft 261 kts 296°
2026-04-30 20:48 51.51376 -1.25193 26190 ft 269 kts 301°
2026-04-30 20:49 51.52646 -1.27159 26682 ft 273 kts 302°
2026-04-30 20:49 51.54001 -1.29226 27180 ft 275 kts 302°
2026-04-30 20:49 51.55364 -1.31298 27666 ft 278 kts 302°
2026-04-30 20:50 51.58162 -1.35543 28616 ft 283 kts 302°
2026-04-30 20:50 51.59549 -1.37785 29084 ft 279 kts 297°
2026-04-30 20:50 51.60691 -1.40039 29521 ft 274 kts 292°
2026-04-30 20:50 51.61750 -1.42617 29978 ft 269 kts 287°
2026-04-30 20:51 51.62600 -1.45078 30388 ft 269 kts 286°
2026-04-30 20:51 51.64401 -1.50434 31237 ft 273 kts 286°
2026-04-30 20:51 51.65288 -1.53089 31638 ft 275 kts 285°
2026-04-30 20:52 51.66173 -1.55748 32016 ft 277 kts 285°
2026-04-30 20:52 51.67070 -1.58467 32159 ft 286 kts 285°
2026-04-30 20:52 51.68705 -1.64345 32168 ft 305 kts 281°
2026-04-30 20:53 51.69381 -1.67367 32172 ft 314 kts 278°
2026-04-30 20:53 51.70537 -1.74201 32170 ft 332 kts 274°
2026-04-30 20:54 51.71268 -1.81359 32169 ft 349 kts 272°
2026-04-30 20:54 51.71660 -1.85136 32169 ft 359 kts 274°
2026-04-30 20:55 51.73291 -1.96662 32166 ft 380 kts 276°
2026-04-30 20:55 51.74519 -2.04891 32162 ft 381 kts 276°
2026-04-30 20:56 51.76057 -2.15277 32156 ft 382 kts 276°
2026-04-30 20:57 51.77916 -2.27966 32148 ft 382 kts 276°
2026-04-30 20:57 51.79120 -2.36235 32146 ft 382 kts 276°
2026-04-30 20:58 51.80931 -2.48759 32145 ft 382 kts 276°
2026-04-30 20:58 51.82130 -2.57193 32145 ft 382 kts 276°
2026-04-30 20:59 51.83836 -2.69865 32147 ft 381 kts 275°
2026-04-30 21:00 51.86099 -2.86744 32145 ft 381 kts 275°
2026-04-30 21:01 51.87782 -2.99375 32145 ft 382 kts 275°
2026-04-30 21:02 51.89463 -3.12103 32145 ft 383 kts 274°
2026-04-30 21:02 51.90579 -3.20625 32145 ft 383 kts 274°
2026-04-30 21:03 51.91679 -3.29069 32145 ft 384 kts 274°
2026-04-30 21:03 51.92057 -3.31976 32145 ft 384 kts 274°
2026-04-30 21:05 51.96643 -3.67916 32147 ft 383 kts 274°
2026-04-30 21:05 51.97695 -3.76335 32146 ft 382 kts 274°
2026-04-30 21:06 51.98742 -3.84723 32146 ft 382 kts 274°
2026-04-30 21:06 51.99803 -3.93266 32145 ft 382 kts 274°
2026-04-30 21:07 52.00821 -4.01517 32145 ft 382 kts 274°
2026-04-30 21:07 52.01869 -4.10056 32144 ft 382 kts 274°
2026-04-30 21:08 52.02909 -4.18588 32140 ft 382 kts 274°
2026-04-30 21:08 52.03952 -4.27191 32134 ft 382 kts 274°
2026-04-30 21:09 52.04968 -4.35628 32126 ft 383 kts 274°
2026-04-30 21:09 52.06001 -4.44258 32121 ft 383 kts 274°
2026-04-30 21:10 52.07007 -4.52718 32118 ft 383 kts 274°
2026-04-30 21:10 52.08021 -4.61289 32116 ft 383 kts 274°
2026-04-30 21:11 52.09011 -4.69717 32119 ft 382 kts 273°
2026-04-30 21:11 52.10010 -4.78227 32118 ft 382 kts 273°
2026-04-30 21:12 52.10744 -4.84390 32115 ft 383 kts 273°
2026-04-30 21:12 52.11737 -4.92855 32116 ft 383 kts 272°
2026-04-30 21:13 52.12770 -5.01332 32113 ft 389 kts 276°
2026-04-30 21:13 52.14867 -5.09680 32115 ft 408 kts 288°
2026-04-30 21:14 52.16407 -5.13527 32115 ft 420 kts 295°
2026-04-30 21:14 52.18389 -5.17281 32115 ft 433 kts 302°
2026-04-30 21:14 52.20634 -5.20509 32114 ft 447 kts 309°
2026-04-30 21:14 52.23314 -5.23379 32115 ft 462 kts 317°
2026-04-30 21:15 52.29053 -5.28216 31739 ft 461 kts 320°
2026-04-30 21:15 52.31894 -5.30516 30804 ft 464 kts 321°
2026-04-30 21:15 52.34837 -5.32920 29528 ft 471 kts 321°
2026-04-30 21:16 52.37770 -5.35331 28251 ft 477 kts 322°
2026-04-30 21:16 52.40779 -5.37805 26946 ft 482 kts 322°
2026-04-30 21:16 52.43855 -5.40344 25763 ft 485 kts 323°
2026-04-30 21:16 52.46930 -5.42891 24913 ft 489 kts 323°
2026-04-30 21:17 52.50005 -5.45441 24375 ft 491 kts 324°
2026-04-30 21:17 52.53142 -5.48006 24134 ft 493 kts 325°
2026-04-30 21:17 52.56393 -5.50299 24125 ft 500 kts 329°
2026-04-30 21:17 52.59745 -5.52229 24124 ft 504 kts 333°
2026-04-30 21:18 52.63124 -5.53978 24107 ft 503 kts 334°
2026-04-30 21:18 52.66389 -5.55607 23889 ft 494 kts 334°
2026-04-30 21:18 52.69546 -5.57188 23352 ft 483 kts 334°
2026-04-30 21:18 52.72521 -5.58703 22744 ft 475 kts 334°
2026-04-30 21:19 52.75691 -5.60335 22128 ft 467 kts 334°
2026-04-30 21:19 52.78825 -5.61957 21515 ft 459 kts 334°
2026-04-30 21:19 52.81883 -5.63543 20919 ft 451 kts 334°
2026-04-30 21:19 52.84874 -5.65096 20341 ft 443 kts 333°
2026-04-30 21:20 52.87760 -5.66605 19798 ft 436 kts 333°
2026-04-30 21:20 52.90664 -5.68129 19253 ft 429 kts 333°
2026-04-30 21:20 52.93510 -5.69620 18724 ft 422 kts 334°
2026-04-30 21:20 52.96335 -5.71097 18197 ft 415 kts 334°
2026-04-30 21:21 52.98968 -5.72474 17709 ft 409 kts 334°
2026-04-30 21:21 53.01712 -5.73911 17205 ft 402 kts 335°
2026-04-30 21:21 53.06996 -5.76677 16243 ft 390 kts 336°
2026-04-30 21:22 53.09589 -5.78038 15779 ft 384 kts 336°
2026-04-30 21:22 53.15103 -5.85504 14445 ft 336 kts 288°
2026-04-30 21:23 53.16007 -5.89091 14015 ft 330 kts 288°
2026-04-30 21:23 53.16889 -5.92623 13597 ft 325 kts 288°
2026-04-30 21:23 53.18638 -5.99493 12890 ft 312 kts 289°
2026-04-30 21:24 53.19501 -6.02843 12549 ft 306 kts 289°
2026-04-30 21:24 53.20352 -6.06131 12201 ft 300 kts 289°
2026-04-30 21:24 53.21173 -6.09309 11853 ft 296 kts 290°
2026-04-30 21:24 53.21991 -6.12477 11510 ft 291 kts 290°
2026-04-30 21:25 53.23594 -6.18697 10835 ft 281 kts 290°
2026-04-30 21:25 53.24364 -6.21688 10447 ft 279 kts 291°
2026-04-30 21:25 53.25087 -6.24505 9886 ft 271 kts 291°
2026-04-30 21:26 53.26301 -6.29243 8910 ft 256 kts 292°
2026-04-30 21:26 53.26994 -6.31970 8537 ft 241 kts 292°
2026-04-30 21:27 53.28313 -6.37097 7975 ft 253 kts 289°
2026-04-30 21:27 53.29001 -6.39810 7590 ft 252 kts 289°
2026-04-30 21:27 53.29642 -6.42334 7260 ft 251 kts 290°
2026-04-30 21:28 53.31006 -6.47684 6664 ft 248 kts 290°
2026-04-30 21:28 53.31688 -6.50360 6380 ft 247 kts 290°
2026-04-30 21:28 53.33021 -6.55607 5837 ft 247 kts 290°
2026-04-30 21:29 53.33696 -6.58265 5561 ft 246 kts 290°
2026-04-30 21:29 53.35853 -6.66744 4975 ft 246 kts 294°
2026-04-30 21:30 53.38605 -6.69615 4156 ft 240 kts
2026-04-30 21:31 53.42864 -6.68349 4039 ft 178 kts 32°
2026-04-30 21:31 53.44194 -6.65093 4006 ft 165 kts 86°
2026-04-30 21:32 53.44053 -6.61365 4003 ft 163 kts 100°
2026-04-30 21:32 53.43926 -6.59528 4001 ft 163 kts 100°
2026-04-30 21:32 53.43808 -6.57669 4000 ft 163 kts 99°
2026-04-30 21:32 53.43701 -6.55840 3999 ft 163 kts 98°
2026-04-30 21:33 53.43624 -6.54020 3851 ft 158 kts 97°
2026-04-30 21:33 53.43473 -6.50526 2941 ft 160 kts 97°
2026-04-30 21:33 53.43412 -6.49399 2690 ft 157 kts 98°
2026-04-30 21:34 53.43369 -6.47762 2431 ft 159 kts 90°
2026-04-30 21:34 53.43845 -6.44274 1897 ft 158 kts 75°
2026-04-30 21:34 53.44157 -6.42515 1666 ft 153 kts 75°
2026-04-30 21:35 53.44414 -6.40786 1334 ft 143 kts 84°
2026-04-30 21:35 53.44398 -6.39135 1121 ft 142 kts 94°
2026-04-30 21:35 53.44283 -6.37361 1147 ft 152 kts 95°
2026-04-30 21:35 53.44154 -6.35642 1047 ft 138 kts 95°
2026-04-30 21:36 53.44050 -6.34055 946 ft 133 kts 94°
2026-04-30 21:36 53.43972 -6.32659 819 ft 133 kts 92°
2026-04-30 21:37 53.43723 -6.28198 308 ft 129 kts 92°
2026-04-30 21:37 53.43647 -6.26787 251 ft 100 kts 95°
2026-04-30 21:37 53.43601 -6.25911 251 ft 50 kts 99°
2026-04-30 21:37 53.43569 -6.25407 251 ft 43 kts 103°
2026-04-30 21:38 53.43497 -6.25131 251 ft 17 kts 119°
2026-04-30 21:38 53.43456 -6.25011 251 ft 11 kts 120°
2026-04-30 21:38 53.43407 -6.24946 251 ft 8 kts 206°
2026-04-30 21:38 53.43380 -6.25030 251 ft 9 kts 265°
2026-04-30 21:39 53.43382 -6.25145 251 ft 10 kts 275°
2026-04-30 21:39 53.43390 -6.25275 251 ft 11 kts 276°
2026-04-30 21:39 53.43399 -6.25416 251 ft 12 kts 276°
2026-04-30 21:39 53.43408 -6.25571 251 ft 13 kts 270°
2026-04-30 21:40 53.43348 -6.25643 251 ft 13 kts 162°
2026-04-30 21:40 53.43261 -6.25580 251 ft 14 kts 155°
2026-04-30 21:40 53.43167 -6.25511 251 ft 14 kts 156°
2026-04-30 21:40 53.43072 -6.25443 251 ft 15 kts 156°
2026-04-30 21:41 53.42971 -6.25370 251 ft 15 kts 157°
2026-04-30 21:41 53.42869 -6.25296 251 ft 16 kts 156°
2026-04-30 21:41 53.42797 -6.25163 251 ft 16 kts 98°
2026-04-30 21:41 53.42745 -6.25008 251 ft 16 kts 146°
2026-04-30 21:42 53.42648 -6.24905 251 ft 13 kts 149°
2026-04-30 21:42 53.42585 -6.24862 251 ft 10 kts 159°
2026-04-30 21:42 53.42510 -6.24810 251 ft 12 kts 153°
2026-04-30 21:42 53.42472 -6.24735 251 ft 6 kts 116°
2026-04-30 21:43 53.42475 -6.24671 251 ft 6 kts 16°
2026-04-30 21:43 53.42507 -6.24648 251 ft 7 kts 27°
2026-04-30 21:43 53.42541 -6.24627 251 ft 0 kts 18°